STARLINK-32496, 62051

Orbit data source: Space-Track

STARLINK-32496, 62051 is a payload satellite owned by SpaceX/Seattle (US) in LEO that was launched on Thu, 21 Nov 2024 UTC via an FALCON 9 launch vehicle from the Air Force Eastern Test Range (AFETR). Payloads include a variety of satellites, spacecraft, and rockets equipped with specific instruments for various scientific and technological missions. These include communications satellites like Starlink; space stations such as the ISS; scientific satellites like the Hubble; Earth observation satellites from companies like Planet Labs, Umbra, and HawkEye 360; GPS; miniature CubeSats for education and research; and military/defense satellites.

Loading next visibility...
STARLINK-32496 details
Identifier
62051, 2024-216V
Orbit
LEO
Last TLE update10 hours ago
Origin
Flag of USSpaceX/Seattle (US)
ManufacturerSpaceX/Seattle
MissionOperational spacecraft
Bus & MotorSTARLINK V2M, Unknown motor
Mass730 kg wet, ~700 kg dry
Launch date (UTC)
2024-11-21 (3 weeks ago)
Launch vehicle
FALCON 9
Launch site
Air Force Eastern Test Range (AFETR)
Object type
Payload
Rocket body
Debris
Shape & HBRUnknown
Radar Cross SectionLarge (>1 m²)

Expand to show TLE details & history

TLE from 10 hours ago
0 STARLINK-32496
1 62051U 24216V   24348.50002315 -.00011259  00000-0 -18631-3 0  9998
2 62051  42.9995 307.3343 0001182 277.4398 209.2277 15.50589450  3441
Epoch: 2024-12-13T12:00Z
Definitive object data (Epoch: 2024-12-13T12:00:02Z)
Latitude33.29478°
Longitude-179.79521°
Altitude416.833 km
Speed7.666 km/s
True Right ascension05h 31m 30s
True Declination33° 07' 45"
Sunlit
Object was in full shadow at TLE epoch
Visualization TLE readout
Latitude-33.0483°
Longitude-93.77828°
Altitude423.689 km
Speed7.658 km/s
Apparent Right ascension09h 52m 51s
Apparent Declination-38° 21' 48"
Sunlit
Object is in daylight
Visualization observer readout
Local Sidereal Time20:15:41
Azimuth266.903° W
Elevation-71.153°
Doppler factor1
Orbital elements
Apogee altitude417.772 km
Perigee altitude416.165 km
Semi-major axis6,795.106 km
Eccentricity0.0001182
Inclination42.9995°
RAAN307.3343°
Arg. of periapsis277.4398°
True anomaly209.22109°
Mean anomaly209.2277°
Eccentric anomaly209.22439°
Mean motion3.8748 °/min
BSTAR-0.00018631
Orbital period92.91 mins
Loading maneuver chart data...
Loading historical data...
Loading historical data...
Loading historical data...
Loading historical data...
Loading historical data...
Loading historical data...
Loading historical data...

STARLINK-32496 Visibility forecast

Observer location: undefined°, undefined

Span
Click to sort rows by Start time (UTC) header in descending order
Start Az.
Max El. time (UTC)
Max El. Az.
Max El.
End time (UTC)
End Az.
4 mins2024-12-14 01:37:54.394Z236.405° WSW2024-12-14 01:38:54.394Z216.03° SW40.324°2024-12-14 01:41:54.394Z75.739° E
5 mins2024-12-14 03:14:54.394Z286.836° WNW2024-12-14 03:16:54.394Z354.104° N37.021°2024-12-14 03:19:54.394Z71.109° E
4 mins2024-12-14 04:52:54.394Z297.161° NW2024-12-14 04:54:54.394Z50.532° ENE40.985°2024-12-14 04:56:54.394Z93.368° ESE
4 mins2024-12-14 06:29:54.394Z264.69° W2024-12-14 06:31:54.394Z208.522° SW28.422°2024-12-14 06:33:54.394Z153.693° SSE
|